Tracking 30918 objects as of 3-Jul-2025
HD Live streaming from Space Station
objects crossing your sky now

SL-16 R/B

Track SL-16 R/B now!
10-day predictions
SL-16 R/B is classified as:


NORAD ID: 25400
Int'l Code: 1998-043G
Perigee: 804.9 km
Apogee: 819.8 km
Inclination: 98.8 °
Period: 101.0 minutes
Semi major axis: 7183 km
RCS: 12.0301 m2 (large)
Launch date: July 10, 1998
Source: Commonwealth of Independent States (former USSR) (CIS)
Launch site: TYURATAM MISSILE AND SPACE COMPLEX (TTMTR)

Note: This is a ROCKET BODY
Your satellite tracking list
Your tracking list is empty




NASA's NSSDC Master Catalog

Two Line Element Set (TLE):
1 25400U 98043G   25183.59221035  .00000036  00000-0  33797-4 0  9993
2 25400  98.7882 130.7467 0010334  25.8918 334.2776 14.25975784403345
Source of the keplerian elements: AFSPC